This is the latest recevied weather packets stored in our database for station/object W0SS-13. If no packets are shown the sender has not sent any weather packets the latest 10 day(s).
| Time | Temp. | Humidity | Pressure | Rain* | Wind** | Luminosity | Snow |
|---|---|---|---|---|---|---|---|
| 1777859328 | 21.11° C | 47% | 1008.5 hPa | 0 mm | - | 0 W/m² | - |
| 1777859024 | 21.11° C | 51% | 1008.7 hPa | 0 mm | - | 0 W/m² | - |
| 1777858722 | 21.67° C | 53% | 1008.6 hPa | 0 mm | - | 0 W/m² | - |
| 1777858420 | 22.78° C | 48% | 1008.5 hPa | 0 mm | - | 0 W/m² | - |
| 1777858116 | 21.67° C | 48% | 1008.6 hPa | 0 mm | - | 0 W/m² | - |
| 1777857814 | 22.22° C | 50% | 1008.5 hPa | 0 mm | - | 1 W/m² | - |
| 1777857511 | 22.22° C | 50% | 1008.5 hPa | 0 mm | - | 1 W/m² | - |
| 1777857207 | 22.78° C | 49% | 1008.6 hPa | 0 mm | - | 2 W/m² | - |
| 1777856904 | 22.22° C | 47% | 1008.5 hPa | 0 mm | - | 4 W/m² | - |
| 1777856599 | 22.78° C | 48% | 1008.5 hPa | 0 mm | - | 6 W/m² | - |
| 1777856296 | 22.78° C | 48% | 1008.7 hPa | 0 mm | - | 8 W/m² | - |
| 1777855993 | 22.78° C | 46% | 1008.8 hPa | 0 mm | - | 11 W/m² | - |
| 1777855691 | 23.33° C | 46% | 1008.6 hPa | 0 mm | - | 15 W/m² | - |
| 1777855388 | 23.89° C | 45% | 1008.7 hPa | 0 mm | - | 18 W/m² | - |
| 1777855084 | 23.89° C | 46% | 1008.4 hPa | 0 mm | - | 21 W/m² | - |
| 1777854781 | 25° C | 43% | 1008.5 hPa | 0 mm | - | 26 W/m² | - |
| 1777854478 | 24.44° C | 41% | 1008.5 hPa | 0 mm | - | 30 W/m² | - |
| 1777854175 | 24.44° C | 42% | 1008.6 hPa | 0 mm | - | 33 W/m² | - |
| 1777853873 | 25° C | 43% | 1008.8 hPa | 0 mm | - | 38 W/m² | - |
| 1777853569 | 25° C | 43% | 1008.6 hPa | 0 mm | - | 41 W/m² | - |
| 1777853266 | 25° C | 38% | 1008.7 hPa | 0 mm | - | 43 W/m² | - |
| 1777852963 | 25° C | 38% | 1008.7 hPa | 0 mm | - | 51 W/m² | - |
| 1777852661 | 25.56° C | 38% | 1008.9 hPa | 0 mm | - | 62 W/m² | - |
| 1777852358 | 25.56° C | 38% | 1008.7 hPa | 0 mm | - | 66 W/m² | - |
| 1777852056 | 25.56° C | 37% | 1009 hPa | 0 mm | - | 71 W/m² | - |
* Rain latest hour (hover to see other rain measurements)
** Current wind speed in m/s (hover to see current wind gust speed)